Weather History for Hazlehurst, GA

Change the Weather History Date:

Sunday, November 18, 2012

  Actual Average Record
Temperature  
Mean Temperature 54 °F -  
Max Temperature 88 °F 66 °F 95 °F (2013)
Min Temperature 44 °F 47 °F 31 °F (2014)
Degree Days  
Heating Degree Days 10    
Growing Degree Days 4 (Base 50)    
Moisture  
Dew Point 46 °F    
Average Humidity 74    
Maximum Humidity 90    
Minimum Humidity 58    
Precipitation  
Precipitation 0.00 in - - ()
Sea Level Pressure  
Sea Level Pressure 30.27 in    
Wind  
Wind Speed 5 mph ()    
Max Wind Speed 12 mph    
Max Gust Speed 17 mph    
Visibility 10.0 miles    
Events      
Averages and records for this station are not official NWS values.
T = Trace of Precipitation, MM = Missing Value Source: Averaged Metar Reports

Daily Weather History Graph

Daily Weather History Graph

Search for Another Location

Airport:

Trip Planner

Search our weather history database for the weather conditions in past years. The results will help you decide how hot, cold, wet, or windy it might be!

Date:

Astronomy

Nov. 18, 2012 Rise Set
Actual Time 7:02 AM EST 5:29 PM EST
Civil Twilight 6:36 AM EST 5:55 PM EST
Nautical Twilight 6:06 AM EST 6:25 PM EST
Astronomical Twilight 5:37 AM EST 6:54 PM EST
Moon 11:31 AM EST (11/18) 10:42 PM EST (11/18)
Length of Visible Light 11h 19m
Length of Day
10h 27m
Waxing Crescent, 30% of the Moon is Illuminated
Nov 18
Waxing Crescent
Nov 20
First Quarter
Nov 28
Full
Dec 6
Last Quarter
Dec 13
New

Hourly Weather History & Observations

Time (EST) Temp. Windchill Dew Point Humidity Pressure Visibility Wind Dir Wind Speed Gust Speed Precip Events Conditions
12:15 AM 45.9 °F 44.6 °F 36.5 °F 70% 30.30 in 10.0 mi North 3.5 mph - N/A   Overcast
12:35 AM 46.0 °F 44.8 °F 37.2 °F 71% 30.29 in 10.0 mi North 3.5 mph - N/A   Overcast
12:55 AM 45.9 °F 44.6 °F 37.8 °F 73% 30.29 in 10.0 mi North 3.5 mph - N/A   Overcast
1:15 AM 45.7 °F 44.4 °F 38.5 °F 76% 30.28 in 10.0 mi NNW 3.5 mph - N/A   Overcast
1:35 AM 46.0 °F - 38.7 °F 75% 30.28 in 10.0 mi Calm Calm - N/A   Overcast
1:55 AM 46.2 °F - 39.0 °F 76% 30.28 in 10.0 mi Calm Calm - N/A   Overcast
2:15 AM 46.0 °F 44.8 °F 38.8 °F 76% 30.28 in 10.0 mi North 3.5 mph - N/A   Overcast
2:35 AM 45.7 °F 44.4 °F 39.4 °F 79% 30.28 in 10.0 mi North 3.5 mph - N/A   Overcast
2:55 AM 45.0 °F 43.5 °F 39.4 °F 81% 30.27 in 10.0 mi North 3.5 mph - N/A   Mostly Cloudy
3:15 AM 44.8 °F 43.3 °F 39.6 °F 82% 30.28 in 10.0 mi North 3.5 mph - N/A   Overcast
3:35 AM 45.5 °F 43.2 °F 40.3 °F 82% 30.28 in 10.0 mi North 4.6 mph - N/A   Overcast
3:55 AM 45.7 °F 44.4 °F 40.6 °F 83% 30.28 in 10.0 mi North 3.5 mph - N/A   Overcast
4:15 AM 46.2 °F 45.0 °F 41.2 °F 83% 30.28 in 10.0 mi NNW 3.5 mph - N/A   Overcast
4:35 AM 46.4 °F 45.2 °F 41.4 °F 83% 30.28 in 10.0 mi North 3.5 mph - N/A   Overcast
4:55 AM 46.2 °F 44.1 °F 41.2 °F 83% 30.28 in 10.0 mi North 4.6 mph - N/A   Overcast
5:15 AM 45.3 °F 44.0 °F 41.2 °F 85% 30.29 in 10.0 mi North 3.5 mph - N/A   Mostly Cloudy
5:35 AM 44.4 °F 42.0 °F 41.2 °F 88% 30.29 in 10.0 mi North 4.6 mph - N/A   Mostly Cloudy
5:55 AM 44.1 °F - 41.2 °F 90% 30.30 in 10.0 mi Calm Calm - N/A   Overcast
6:15 AM 44.8 °F 43.3 °F 41.7 °F 89% 30.29 in 10.0 mi NNE 3.5 mph - N/A   Overcast
6:35 AM 45.0 °F 42.6 °F 41.9 °F 89% 30.29 in 10.0 mi North 4.6 mph - N/A   Scattered Clouds
6:55 AM 44.4 °F 42.0 °F 41.5 °F 90% 30.29 in 10.0 mi North 4.6 mph - N/A   Scattered Clouds
7:15 AM 44.6 °F 43.1 °F 41.7 °F 90% 30.30 in 10.0 mi NNE 3.5 mph - N/A   Mostly Cloudy
7:35 AM 44.8 °F 43.3 °F 41.9 °F 90% 30.30 in 10.0 mi North 3.5 mph - N/A   Scattered Clouds
7:55 AM 45.3 °F 43.0 °F 41.5 °F 87% 30.30 in 10.0 mi North 4.6 mph - N/A   Clear
8:15 AM 46.6 °F - 41.9 °F 84% 30.31 in 10.0 mi North 4.6 mph - N/A   Clear
8:35 AM 48.7 °F - 42.1 °F 78% 30.31 in 10.0 mi North 6.9 mph - N/A   Clear
8:55 AM 50.2 °F - 42.3 °F 74% 30.32 in 10.0 mi North 5.8 mph - N/A   Mostly Cloudy
9:15 AM 51.6 °F - 42.6 °F 71% 30.32 in 10.0 mi North 8.1 mph - N/A   Overcast
9:35 AM 52.7 °F - 43.5 °F 71% 30.32 in 10.0 mi NNE 6.9 mph - N/A   Overcast
9:55 AM 53.6 °F - 44.1 °F 70% 30.32 in 10.0 mi NNE 9.2 mph - N/A   Overcast
10:15 AM 54.7 °F - 44.8 °F 69% 30.31 in 10.0 mi NNE 8.1 mph 16.1 mph N/A   Overcast
10:35 AM 56.5 °F - 45.9 °F 68% 30.31 in 10.0 mi NE 10.4 mph - N/A   Mostly Cloudy
10:55 AM 57.0 °F - 46.6 °F 68% 30.31 in 10.0 mi NNE 8.1 mph - N/A   Scattered Clouds
11:15 AM 58.3 °F - 47.8 °F 68% 30.30 in 10.0 mi ENE 6.9 mph 17.3 mph N/A   Clear
11:35 AM 59.7 °F - 48.0 °F 65% 30.29 in 10.0 mi NNE 9.2 mph - N/A   Clear
11:55 AM 60.3 °F - 47.7 °F 63% 30.27 in 10.0 mi NNE 10.4 mph - N/A   Clear
12:15 PM 61.3 °F - 48.2 °F 62% 30.26 in 10.0 mi North 6.9 mph - N/A   Clear
12:35 PM 62.2 °F - 48.9 °F 62% 30.26 in 10.0 mi North 6.9 mph - N/A   Clear
12:55 PM 63.0 °F - 49.3 °F 61% 30.25 in 10.0 mi NNE 9.2 mph - N/A   Clear
1:15 PM 63.3 °F - 49.5 °F 61% 30.24 in 10.0 mi North 6.9 mph - N/A   Clear
1:35 PM 64.0 °F - 50.0 °F 60% 30.23 in 10.0 mi NNE 6.9 mph - N/A   Clear
1:55 PM 64.8 °F - 50.2 °F 59% 30.23 in 10.0 mi North 10.4 mph - N/A   Clear
2:15 PM 65.1 °F - 50.9 °F 60% 30.22 in 10.0 mi North 6.9 mph - N/A   Clear
2:35 PM 65.7 °F - 51.1 °F 59% 30.22 in 10.0 mi NNW 9.2 mph - N/A   Clear
2:55 PM 65.5 °F - 50.5 °F 58% 30.22 in 10.0 mi North 11.5 mph 16.1 mph N/A   Clear
3:15 PM 65.1 °F - 50.9 °F 60% 30.23 in 10.0 mi North 10.4 mph - N/A   Clear
3:35 PM 64.9 °F - 51.1 °F 61% 30.22 in 10.0 mi NNE 10.4 mph - N/A   Clear
3:55 PM 64.6 °F - 51.3 °F 62% 30.22 in 10.0 mi North 8.1 mph - N/A   Clear
4:15 PM 63.9 °F - 51.6 °F 64% 30.22 in 10.0 mi North 10.4 mph - N/A   Clear
4:35 PM 63.1 °F - 51.1 °F 65% 30.23 in 10.0 mi North 9.2 mph - N/A   Clear
4:55 PM 62.1 °F - 50.9 °F 67% 30.23 in 10.0 mi North 6.9 mph - N/A   Clear
5:15 PM 61.2 °F - 50.9 °F 69% 30.23 in 10.0 mi North 6.9 mph - N/A   Clear
5:35 PM 59.9 °F - 50.9 °F 72% 30.24 in 10.0 mi North 8.1 mph - N/A   Scattered Clouds
5:55 PM 59.4 °F - 50.9 °F 74% 30.25 in 10.0 mi North 4.6 mph - N/A   Mostly Cloudy
6:15 PM 59.0 °F - 50.9 °F 74% 30.25 in 10.0 mi North 4.6 mph - N/A   Overcast
6:35 PM 58.6 °F - 51.1 °F 76% 30.26 in 10.0 mi North 4.6 mph - N/A   Overcast
6:55 PM 58.6 °F - 50.9 °F 75% 30.27 in 10.0 mi North 4.6 mph - N/A   Overcast
7:15 PM 58.5 °F - 50.9 °F 76% 30.27 in 10.0 mi North 5.8 mph - N/A   Overcast
7:35 PM 58.5 °F - 50.9 °F 76% 30.27 in 10.0 mi North 4.6 mph - N/A   Overcast
7:55 PM 58.5 °F - 50.7 °F 75% 30.27 in 10.0 mi North 5.8 mph - N/A   Overcast
8:15 PM 58.3 °F - 50.0 °F 74% 30.28 in 10.0 mi North 6.9 mph - N/A   Overcast
8:35 PM 58.5 °F - 49.6 °F 72% 30.27 in 10.0 mi NNE 5.8 mph - N/A   Overcast
9:15 PM 57.6 °F - 49.1 °F 73% 30.26 in 10.0 mi NNE 6.9 mph - N/A   Mostly Cloudy
9:35 PM 56.8 °F - 49.1 °F 75% 30.26 in 10.0 mi North 5.8 mph - N/A   Mostly Cloudy
9:55 PM 56.5 °F - 49.1 °F 76% 30.26 in 10.0 mi North 4.6 mph - N/A   Overcast
10:15 PM 55.9 °F - 49.1 °F 78% 30.26 in 10.0 mi North 5.8 mph - N/A   Overcast
10:35 PM 56.1 °F - 49.1 °F 77% 30.26 in 10.0 mi North 4.6 mph - N/A   Overcast
10:55 PM 55.9 °F - 49.1 °F 78% 30.25 in 10.0 mi NNE 5.8 mph - N/A   Overcast
11:35 PM 56.3 °F - 48.4 °F 75% 30.25 in 10.0 mi NNE 4.6 mph - N/A   Overcast